Melfa, VA

5:01 AM EDT on March 29, 2017 (GMT -0400)
Accomack County

Weather History for KMFV - October, 2012

Change the Weather History Date:

Monday, October 1, 2012

  Actual Average (KWAL) Record (KWAL)
Temperature  
Mean Temperature 63 °F -  
Max Temperature 71 °F 71 °F 89 °F (1986)
Min Temperature 55 °F 54 °F 41 °F (1993)
Degree Days  
Heating Degree Days 2    
Growing Degree Days 13 (Base 50)    
Moisture  
Dew Point 58 °F    
Average Humidity 82    
Maximum Humidity 94    
Minimum Humidity 64    
Precipitation  
Precipitation 0.00 in - - ()
Sea Level Pressure  
Sea Level Pressure 29.94 in    
Wind  
Wind Speed 2 mph (East)    
Max Wind Speed 7 mph    
Max Gust Speed -    
Visibility 8 miles    
Events Rain    
Averages and records for this station are not official NWS values.
T = Trace of Precipitation, MM = Missing Value Source: NWS Daily Summary

Daily Weather History Graph

Daily Weather History Graph

Search for Another Location

Airport or City:

Trip Planner

Search our weather history database for the weather conditions in past years. The results will help you decide how hot, cold, wet, or windy it might be!

Date:

Astronomy

Oct. 01, 2012 Rise Set
Actual Time 6:59 AM EDT 6:45 PM EDT
Civil Twilight 6:32 AM EDT 7:11 PM EDT
Nautical Twilight 6:02 AM EDT 7:41 PM EDT
Astronomical Twilight 5:31 AM EDT 8:12 PM EDT
Moon 7:24 PM EDT (10/1) 8:23 AM EDT (10/1)
Length of Visible Light 12h 38m
Length of Day
11h 46m
Full, 98% of the Moon is Illuminated
Oct 1
Full
Oct 8
Last Quarter
Oct 15
New
Oct 21
First Quarter
Oct 29
Full

Hourly Weather History & Observations

Time (EDT) Temp. Dew Point Humidity Pressure Visibility Wind Dir Wind Speed Gust Speed Precip Events Conditions
12:19 AM 60.8 °F 57.2 °F 88% 29.89 in 10.0 mi SSW 4.6 mph - N/A   Clear
12:57 AM 59.0 °F 55.4 °F 88% 29.90 in 7.0 mi Calm Calm - N/A   Clear
1:16 AM 59.0 °F 55.4 °F 88% 29.90 in 7.0 mi Calm Calm - N/A   Clear
1:36 AM 57.2 °F 55.4 °F 94% 29.91 in 7.0 mi Calm Calm - N/A   Clear
1:56 AM 57.2 °F 55.4 °F 94% 29.91 in 5.0 mi Calm Calm - N/A   Clear
2:16 AM 57.2 °F 55.4 °F 94% 29.90 in 7.0 mi West 3.5 mph - N/A   Clear
2:36 AM 57.2 °F 55.4 °F 94% 29.91 in 3.0 mi Calm Calm - N/A   Clear
2:56 AM 57.2 °F 55.4 °F 94% 29.90 in 5.0 mi Calm Calm - N/A   Clear
3:16 AM 57.2 °F 55.4 °F 94% 29.90 in 5.0 mi Calm Calm - N/A   Mist
3:38 AM 55.4 °F 53.6 °F 94% 29.89 in 5.0 mi Calm Calm - N/A   Mist
3:56 AM 55.4 °F 53.6 °F 94% 29.89 in 5.0 mi Calm Calm - N/A   Mist
4:16 AM 55.4 °F 53.6 °F 94% 29.89 in 3.0 mi Calm Calm - N/A   Mist
5:16 AM 55.4 °F 53.6 °F 94% 29.89 in 2.0 mi Calm Calm - N/A   Clear
5:36 AM 55.4 °F 53.6 °F 94% 29.90 in 4.0 mi Calm Calm - N/A   Clear
5:59 AM 55.4 °F 53.6 °F 94% 29.91 in 0.8 mi East 3.5 mph - N/A   Mist
6:16 AM 55.4 °F 53.6 °F 94% 29.91 in 5.0 mi Calm Calm - N/A   Clear
6:36 AM 55.4 °F 53.6 °F 94% 29.91 in 7.0 mi Calm Calm - N/A   Clear
6:56 AM 55.4 °F 53.6 °F 94% 29.92 in 5.0 mi Calm Calm - N/A   Clear
7:16 AM 55.4 °F 53.6 °F 94% 29.93 in 5.0 mi Calm Calm - N/A   Clear
7:36 AM 57.2 °F 55.4 °F 94% 29.94 in 7.0 mi Calm Calm - N/A   Clear
8:16 AM 59.0 °F 57.2 °F 94% 29.95 in 10.0 mi NE 4.6 mph - N/A Rain Light Rain
8:36 AM 60.8 °F 55.4 °F 82% 29.96 in 10.0 mi NE 6.9 mph - N/A   Unknown
8:56 AM 62.6 °F 55.4 °F 77% 29.96 in 10.0 mi NE 4.6 mph - N/A Rain Light Rain
9:16 AM 62.6 °F 57.2 °F 82% 29.96 in 10.0 mi ENE 4.6 mph - N/A   Unknown
9:36 AM 64.4 °F 55.4 °F 73% 29.97 in 10.0 mi ENE 4.6 mph - N/A   Unknown
10:16 AM 64.4 °F 55.4 °F 73% 29.97 in 10.0 mi ENE 5.8 mph - N/A   Unknown
10:36 AM 66.2 °F 57.2 °F 73% 29.98 in 10.0 mi NE 3.5 mph - N/A   Unknown
10:56 AM 66.2 °F 57.2 °F 73% 29.97 in 10.0 mi Calm Calm - N/A   Scattered Clouds
11:16 AM 68.0 °F 57.2 °F 68% 29.97 in 10.0 mi East 3.5 mph - N/A   Scattered Clouds
11:36 AM 68.0 °F 57.2 °F 68% 29.97 in 10.0 mi Calm Calm - N/A   Scattered Clouds
11:56 AM 69.8 °F 57.2 °F 64% 29.96 in 10.0 mi ENE 3.5 mph - N/A   Mostly Cloudy
12:16 PM 69.8 °F 57.2 °F 64% 29.97 in 10.0 mi East 3.5 mph - N/A   Mostly Cloudy
12:36 PM 69.8 °F 57.2 °F 64% 29.97 in 10.0 mi East 3.5 mph - N/A   Mostly Cloudy
12:56 PM 69.8 °F 57.2 °F 64% 29.97 in 10.0 mi Calm Calm - N/A   Overcast
1:18 PM 69.8 °F 59.0 °F 68% 29.97 in - Calm Calm - N/A   Unknown
1:36 PM 69.8 °F 59.0 °F 68% 29.96 in 10.0 mi Calm Calm - N/A   Mostly Cloudy
2:16 PM 71.6 °F 60.8 °F 69% 29.95 in 10.0 mi Calm Calm - N/A   Scattered Clouds
2:36 PM 71.6 °F 60.8 °F 69% 29.94 in 10.0 mi Calm Calm - N/A   Mostly Cloudy
2:56 PM 71.6 °F 60.8 °F 69% 29.94 in 10.0 mi ESE 3.5 mph - N/A   Mostly Cloudy
3:16 PM 71.6 °F 60.8 °F 69% 29.94 in 10.0 mi Calm Calm - N/A   Overcast
3:36 PM 69.8 °F 60.8 °F 73% 29.95 in 10.0 mi SE 3.5 mph - N/A   Overcast
4:16 PM 69.8 °F 62.6 °F 78% 29.95 in 10.0 mi SSE 4.6 mph - N/A   Overcast
4:36 PM 69.8 °F 62.6 °F 78% 29.95 in 10.0 mi SE 3.5 mph - N/A   Overcast
5:16 PM 69.8 °F 57.2 °F 64% 29.94 in 10.0 mi Calm Calm - N/A   Overcast
5:36 PM 68.0 °F 60.8 °F 78% 29.95 in 10.0 mi Calm Calm - N/A   Overcast
5:56 PM 66.2 °F 60.8 °F 83% 29.95 in 10.0 mi Calm Calm - N/A   Overcast
6:16 PM 66.2 °F 60.8 °F 83% 29.95 in 10.0 mi Calm Calm - N/A   Unknown
6:36 PM 66.2 °F 60.8 °F 83% 29.96 in 10.0 mi Calm Calm - N/A   Unknown
6:56 PM 66.2 °F 60.8 °F 83% 29.95 in 10.0 mi Calm Calm - N/A   Unknown
7:16 PM 66.2 °F 57.2 °F 73% 29.95 in 10.0 mi East 3.5 mph - N/A   Unknown
7:36 PM 66.2 °F 59.0 °F 78% 29.96 in 10.0 mi Calm Calm - N/A   Unknown
7:56 PM 66.2 °F 60.8 °F 83% 29.96 in 10.0 mi Calm Calm - N/A   Unknown
8:16 PM 66.2 °F 60.8 °F 83% 29.96 in 10.0 mi East 4.6 mph - N/A   Unknown
8:36 PM 66.2 °F 59.0 °F 78% 29.96 in 10.0 mi East 3.5 mph - N/A   Unknown
8:56 PM 66.2 °F 60.8 °F 83% 29.96 in 10.0 mi ENE 3.5 mph - N/A   Unknown
9:16 PM 66.2 °F 60.8 °F 83% 29.96 in 10.0 mi East 3.5 mph - N/A   Unknown
9:36 PM 66.2 °F 60.8 °F 83% 29.96 in 10.0 mi East 3.5 mph - N/A   Unknown
9:56 PM 66.2 °F 60.8 °F 83% 29.95 in 10.0 mi East 4.6 mph - N/A   Unknown
10:16 PM 66.2 °F 62.6 °F 88% 29.96 in 10.0 mi East 3.5 mph - N/A   Overcast
10:36 PM 68.0 °F 62.6 °F 83% 29.95 in 10.0 mi East 4.6 mph - N/A   Unknown
10:56 PM 69.8 °F 62.6 °F 78% 29.95 in 10.0 mi ESE 3.5 mph - N/A   Unknown
11:16 PM 69.8 °F 64.4 °F 83% 29.95 in 10.0 mi ESE 4.6 mph - N/A   Unknown
11:36 PM 69.8 °F 64.4 °F 83% 29.95 in 10.0 mi East 3.5 mph - N/A   Unknown
11:56 PM 69.8 °F 64.4 °F 83% 29.95 in 10.0 mi ESE 3.5 mph - N/A   Mostly Cloudy